Time,TemperatureF,DewpointF,PressureIn,WindDirection,WindDirectionDegrees,WindSpeedMPH,WindSpeedGustMPH,Humidity,HourlyPrecipIn,Conditions,Clouds,dailyrainin,SolarRadiationWatts/m^2,SoftwareType,DateUTC
2013-04-23 00:02:00,42.2,35.2,30.48,NNW,345,7.0,9.0,76,0.00,,,0.00,0,Wunderground v.1.15,2013-04-23 04:02:00,
2013-04-23 00:07:00,42.2,35.2,30.48,NNE,29,8.0,17.0,76,0.00,,,0.00,0,Wunderground v.1.15,2013-04-23 04:07:00,
2013-04-23 00:12:00,42.1,35.1,30.48,NNE,26,7.0,17.0,76,0.00,,,0.00,0,Wunderground v.1.15,2013-04-23 04:12:00,
2013-04-23 00:22:00,42.1,35.1,30.48,NE,48,7.0,17.0,76,0.00,,,0.00,0,Wunderground v.1.15,2013-04-23 04:22:00,
2013-04-23 00:27:00,42.0,35.0,30.48,NNE,15,7.0,17.0,76,0.00,,,0.00,0,Wunderground v.1.15,2013-04-23 04:27:00,
2013-04-23 00:32:00,42.0,35.0,30.48,NE,55,6.0,17.0,76,0.00,,,0.00,0,Wunderground v.1.15,2013-04-23 04:32:00,
2013-04-23 00:42:00,42.0,35.0,30.48,NNE,19,7.0,17.0,76,0.00,,,0.00,0,Wunderground v.1.15,2013-04-23 04:42:00,
2013-04-23 00:47:00,42.0,35.0,30.47,NNW,340,7.0,17.0,76,0.00,,,0.00,0,Wunderground v.1.15,2013-04-23 04:47:00,
2013-04-23 00:57:00,42.0,35.3,30.47,NE,40,7.0,7.0,77,0.00,,,0.00,0,Wunderground v.1.15,2013-04-23 04:57:00,
2013-04-23 01:07:00,42.0,35.3,30.46,NNE,24,6.0,6.0,77,0.00,,,0.00,0,Wunderground v.1.15,2013-04-23 05:07:00,
2013-04-23 01:12:00,42.0,35.3,30.46,NNE,26,7.0,7.0,77,0.00,,,0.00,0,Wunderground v.1.15,2013-04-23 05:12:00,
2013-04-23 01:22:00,42.0,35.3,30.46,NNE,33,8.0,17.0,77,0.00,,,0.00,0,Wunderground v.1.15,2013-04-23 05:22:00,
2013-04-23 01:27:00,42.0,35.3,30.46,NNE,19,7.0,17.0,77,0.00,,,0.00,0,Wunderground v.1.15,2013-04-23 05:27:00,
2013-04-23 01:37:00,42.1,35.4,30.45,ENE,60,8.0,8.0,77,0.00,,,0.00,0,Wunderground v.1.15,2013-04-23 05:37:00,
2013-04-23 01:48:00,42.3,35.6,30.45,NE,34,8.0,17.0,77,0.00,,,0.00,0,Wunderground v.1.15,2013-04-23 05:48:00,
2013-04-23 01:57:00,42.5,35.8,30.44,North,11,7.0,18.0,77,0.00,,,0.00,0,Wunderground v.1.15,2013-04-23 05:57:00,
2013-04-23 02:08:00,42.7,36.0,30.43,NNE,13,6.0,18.0,77,0.00,,,0.00,0,Wunderground v.1.15,2013-04-23 06:08:00,
2013-04-23 02:17:00,42.8,36.4,30.43,North,5,8.0,8.0,78,0.00,,,0.00,0,Wunderground v.1.15,2013-04-23 06:17:00,
2013-04-23 02:27:00,42.9,36.5,30.42,ENE,71,8.0,8.0,78,0.00,,,0.00,0,Wunderground v.1.15,2013-04-23 06:27:00,
2013-04-23 02:37:00,43.0,36.6,30.42,NNE,30,8.0,8.0,78,0.00,,,0.00,0,Wunderground v.1.15,2013-04-23 06:37:00,
2013-04-23 02:47:00,43.0,36.9,30.42,NNW,344,6.0,17.0,79,0.00,,,0.00,0,Wunderground v.1.15,2013-04-23 06:47:00,
2013-04-23 02:53:00,43.0,36.9,30.42,NNE,13,7.0,18.0,79,0.00,,,0.00,0,Wunderground v.1.15,2013-04-23 06:53:00,
2013-04-23 03:02:00,42.9,37.2,30.41,NNE,26,8.0,18.0,80,0.00,,,0.00,0,Wunderground v.1.15,2013-04-23 07:02:00,
2013-04-23 03:12:00,42.8,37.4,30.41,NNE,28,8.0,18.0,81,0.00,,,0.00,0,Wunderground v.1.15,2013-04-23 07:12:00,
2013-04-23 03:22:00,42.6,37.2,30.41,NNW,347,7.0,9.0,81,0.00,,,0.00,0,Wunderground v.1.15,2013-04-23 07:22:00,
2013-04-23 03:33:00,42.4,37.3,30.40,NE,46,7.0,17.0,82,0.00,,,0.00,0,Wunderground v.1.15,2013-04-23 07:33:00,
2013-04-23 03:42:00,42.2,37.1,30.40,NNE,24,7.0,17.0,82,0.00,,,0.00,0,Wunderground v.1.15,2013-04-23 07:42:00,
2013-04-23 03:53:00,42.2,37.4,30.40,North,350,6.0,17.0,83,0.00,,,0.00,0,Wunderground v.1.15,2013-04-23 07:53:00,
2013-04-23 04:02:00,42.2,37.4,30.40,NNE,23,5.0,7.0,83,0.00,,,0.00,0,Wunderground v.1.15,2013-04-23 08:02:00,
2013-04-23 04:12:00,42.1,37.6,30.39,North,5,6.0,16.0,84,0.00,,,0.00,0,Wunderground v.1.15,2013-04-23 08:12:00,
2013-04-23 04:22:00,42.1,37.6,30.39,NNE,32,8.0,8.0,84,0.00,,,0.00,0,Wunderground v.1.15,2013-04-23 08:22:00,
2013-04-23 04:32:00,42.1,37.6,30.39,ENE,68,7.0,10.0,84,0.00,,,0.00,0,Wunderground v.1.15,2013-04-23 08:32:00,
2013-04-23 04:42:00,42.0,37.8,30.38,North,355,8.0,16.0,85,0.00,,,0.00,0,Wunderground v.1.15,2013-04-23 08:42:00,
2013-04-23 04:52:00,42.0,38.1,30.38,NNE,30,6.0,19.0,86,0.00,,,0.00,0,Wunderground v.1.15,2013-04-23 08:52:00,
2013-04-23 05:02:00,41.9,38.3,30.38,NNE,31,7.0,7.0,87,0.00,,,0.00,0,Wunderground v.1.15,2013-04-23 09:02:00,
2013-04-23 05:12:00,41.9,38.6,30.38,North,360,6.0,19.0,88,0.00,,,0.00,0,Wunderground v.1.15,2013-04-23 09:12:00,
2013-04-23 05:22:00,41.8,38.5,30.37,NW,317,5.0,19.0,88,0.00,,,0.00,0,Wunderground v.1.15,2013-04-23 09:22:00,
2013-04-23 05:33:00,41.7,38.7,30.37,North,355,6.0,17.0,89,0.00,,,0.00,0,Wunderground v.1.15,2013-04-23 09:33:00,
2013-04-23 05:42:00,41.6,38.6,30.36,ENE,67,6.0,7.0,89,0.00,,,0.00,0,Wunderground v.1.15,2013-04-23 09:42:00,
2013-04-23 05:52:00,41.6,38.9,30.36,NNE,24,6.0,14.0,90,0.00,,,0.00,0,Wunderground v.1.15,2013-04-23 09:52:00,
2013-04-23 06:02:00,41.6,38.9,30.36,North,10,6.0,14.0,90,0.00,,,0.00,0,Wunderground v.1.15,2013-04-23 10:02:00,
2013-04-23 06:13:00,41.7,39.0,30.36,NNW,336,6.0,14.0,90,0.00,,,0.00,0,Wunderground v.1.15,2013-04-23 10:13:00,
2013-04-23 06:22:00,41.7,39.0,30.36,North,355,7.0,15.0,90,0.00,,,0.00,5,Wunderground v.1.15,2013-04-23 10:22:00,
2013-04-23 06:32:00,41.7,39.0,30.36,NNE,19,7.0,15.0,90,0.00,,,0.00,7,Wunderground v.1.15,2013-04-23 10:32:00,
2013-04-23 06:37:00,41.7,39.0,30.36,North,355,8.0,15.0,90,0.00,,,0.00,11,Wunderground v.1.15,2013-04-23 10:37:00,
2013-04-23 06:47:00,41.8,39.1,30.36,NNE,15,7.0,15.0,90,0.00,,,0.00,9,Wunderground v.1.15,2013-04-23 10:47:00,
2013-04-23 06:58:00,41.8,39.4,30.35,NNE,31,5.0,17.0,91,0.00,,,0.00,12,Wunderground v.1.15,2013-04-23 10:58:00,
2013-04-23 07:07:00,41.8,39.4,30.35,NNE,15,7.0,15.0,91,0.00,,,0.00,18,Wunderground v.1.15,2013-04-23 11:07:00,
2013-04-23 07:17:00,41.9,39.7,30.35,ENE,71,7.0,15.0,92,0.00,,,0.00,21,Wunderground v.1.15,2013-04-23 11:17:00,
2013-04-23 07:22:00,41.9,39.7,30.35,NNE,23,6.0,18.0,92,0.00,,,0.00,21,Wunderground v.1.15,2013-04-23 11:22:00,
2013-04-23 07:32:00,42.0,39.8,30.35,North,355,7.0,18.0,92,0.00,,,0.01,28,Wunderground v.1.15,2013-04-23 11:32:00,
2013-04-23 07:38:00,42.0,39.8,30.35,North,351,6.0,6.0,92,0.00,,,0.01,28,Wunderground v.1.15,2013-04-23 11:38:00,
2013-04-23 07:47:00,42.1,40.2,30.35,WNW,294,6.0,18.0,93,0.00,,,0.01,32,Wunderground v.1.15,2013-04-23 11:47:00,
2013-04-23 07:57:00,42.1,40.2,30.35,NNW,342,8.0,16.0,93,0.00,,,0.01,33,Wunderground v.1.15,2013-04-23 11:57:00,
2013-04-23 08:02:00,42.2,40.3,30.35,NNW,348,7.0,16.0,93,0.00,,,0.01,35,Wunderground v.1.15,2013-04-23 12:02:00,
2013-04-23 08:12:00,42.3,40.4,30.34,NNW,338,7.0,16.0,93,0.00,,,0.01,39,Wunderground v.1.15,2013-04-23 12:12:00,
2013-04-23 08:22:00,42.4,40.5,30.34,NNE,33,7.0,17.0,93,0.00,,,0.01,42,Wunderground v.1.15,2013-04-23 12:22:00,
2013-04-23 08:32:00,42.5,40.6,30.34,North,360,6.0,17.0,93,0.00,,,0.01,47,Wunderground v.1.15,2013-04-23 12:32:00,
2013-04-23 08:43:00,42.6,40.7,30.34,NNE,17,7.0,17.0,93,0.00,,,0.02,53,Wunderground v.1.15,2013-04-23 12:43:00,
2013-04-23 08:52:00,42.8,40.9,30.34,North,360,7.0,12.0,93,0.00,,,0.02,42,Wunderground v.1.15,2013-04-23 12:52:00,
2013-04-23 09:02:00,42.9,41.0,30.34,North,355,7.0,8.0,93,0.00,,,0.02,37,Wunderground v.1.15,2013-04-23 13:02:00,
2013-04-23 09:07:00,42.9,41.0,30.34,North,10,6.0,17.0,93,0.00,,,0.02,39,Wunderground v.1.15,2013-04-23 13:07:00,
2013-04-23 09:17:00,43.0,41.1,30.33,North,349,6.0,6.0,93,0.00,,,0.02,51,Wunderground v.1.15,2013-04-23 13:17:00,
2013-04-23 09:22:00,43.1,41.2,30.33,North,5,7.0,7.0,93,0.00,,,0.02,54,Wunderground v.1.15,2013-04-23 13:22:00,
2013-04-23 09:32:00,43.2,41.3,30.33,NE,48,7.0,17.0,93,0.00,,,0.02,56,Wunderground v.1.15,2013-04-23 13:32:00,
2013-04-23 09:43:00,43.3,41.4,30.33,NE,56,6.0,17.0,93,0.00,,,0.02,54,Wunderground v.1.15,2013-04-23 13:43:00,
2013-04-23 09:52:00,43.4,41.5,30.33,North,360,7.0,17.0,93,0.00,,,0.02,62,Wunderground v.1.15,2013-04-23 13:52:00,
2013-04-23 10:02:00,43.6,41.7,30.32,NW,323,8.0,8.0,93,0.00,,,0.02,81,Wunderground v.1.15,2013-04-23 14:02:00,
2013-04-23 10:07:00,43.6,41.7,30.32,NNW,347,8.0,17.0,93,0.00,,,0.02,72,Wunderground v.1.15,2013-04-23 14:07:00,
2013-04-23 10:17:00,43.7,41.8,30.32,NE,38,9.0,9.0,93,0.00,,,0.02,86,Wunderground v.1.15,2013-04-23 14:17:00,
2013-04-23 10:23:00,43.8,41.9,30.32,ENE,64,10.0,11.0,93,0.00,,,0.02,114,Wunderground v.1.15,2013-04-23 14:23:00,
2013-04-23 10:32:00,44.1,42.2,30.32,NE,51,8.0,21.0,93,0.00,,,0.02,146,Wunderground v.1.15,2013-04-23 14:32:00,
2013-04-23 10:42:00,44.4,42.2,30.32,NNE,20,9.0,9.0,92,0.00,,,0.02,102,Wunderground v.1.15,2013-04-23 14:42:00,
2013-04-23 10:48:00,44.4,42.2,30.31,NNE,15,9.0,21.0,92,0.00,,,0.02,121,Wunderground v.1.15,2013-04-23 14:48:00,
2013-04-23 10:57:00,44.6,42.4,30.31,NW,325,9.0,9.0,92,0.00,,,0.02,121,Wunderground v.1.15,2013-04-23 14:57:00,
2013-04-23 11:08:00,44.8,42.6,30.30,NE,34,8.0,22.0,92,0.00,,,0.02,183,Wunderground v.1.15,2013-04-23 15:08:00,
2013-04-23 11:17:00,45.2,43.0,30.29,NNW,342,8.0,22.0,92,0.00,,,0.02,165,Wunderground v.1.15,2013-04-23 15:17:00,
2013-04-23 11:27:00,45.3,42.8,30.29,NNW,344,9.0,19.0,91,0.00,,,0.02,211,Wunderground v.1.15,2013-04-23 15:27:00,
2013-04-23 11:33:00,45.5,43.0,30.29,NE,37,9.0,19.0,91,0.00,,,0.02,153,Wunderground v.1.15,2013-04-23 15:33:00,
2013-04-23 11:42:00,45.7,43.2,30.29,ENE,59,7.0,19.0,91,0.00,,,0.02,149,Wunderground v.1.15,2013-04-23 15:42:00,
2013-04-23 11:52:00,45.8,43.3,30.29,North,355,8.0,19.0,91,0.00,,,0.02,148,Wunderground v.1.15,2013-04-23 15:52:00,
2013-04-23 11:57:00,45.7,42.9,30.29,ENE,70,9.0,18.0,90,0.00,,,0.02,156,Wunderground v.1.15,2013-04-23 15:57:00,
2013-04-23 12:07:00,45.9,43.1,30.29,NNW,342,8.0,8.0,90,0.00,,,0.02,109,Wunderground v.1.15,2013-04-23 16:07:00,
2013-04-23 12:18:00,46.0,43.2,30.27,NNE,16,8.0,8.0,90,0.00,,,0.02,174,Wunderground v.1.15,2013-04-23 16:18:00,
2013-04-23 12:27:00,46.1,43.0,30.27,North,11,9.0,20.0,89,0.00,,,0.02,130,Wunderground v.1.15,2013-04-23 16:27:00,
2013-04-23 12:37:00,46.3,43.2,30.26,NNW,339,8.0,8.0,89,0.00,,,0.02,141,Wunderground v.1.15,2013-04-23 16:37:00,
2013-04-23 12:42:00,46.3,43.2,30.26,North,355,8.0,20.0,89,0.00,,,0.02,155,Wunderground v.1.15,2013-04-23 16:42:00,
2013-04-23 12:52:00,46.6,43.2,30.25,NE,36,6.0,20.0,88,0.00,,,0.02,176,Wunderground v.1.15,2013-04-23 16:52:00,
2013-04-23 12:58:00,46.6,43.2,30.24,NW,306,8.0,8.0,88,0.00,,,0.02,172,Wunderground v.1.15,2013-04-23 16:58:00,
2013-04-23 13:08:00,46.8,43.1,30.24,NNE,24,7.0,20.0,87,0.00,,,0.02,165,Wunderground v.1.15,2013-04-23 17:08:00,
2013-04-23 13:17:00,46.9,43.2,30.23,North,5,9.0,9.0,87,0.00,,,0.02,176,Wunderground v.1.15,2013-04-23 17:17:00,
2013-04-23 13:27:00,46.9,43.2,30.23,NNE,19,7.0,7.0,87,0.00,,,0.02,130,Wunderground v.1.15,2013-04-23 17:27:00,
2013-04-23 13:33:00,46.9,43.2,30.23,NNE,15,7.0,10.0,87,0.00,,,0.02,125,Wunderground v.1.15,2013-04-23 17:33:00,
2013-04-23 13:42:00,46.8,42.8,30.22,North,355,9.0,10.0,86,0.00,,,0.02,125,Wunderground v.1.15,2013-04-23 17:42:00,
2013-04-23 13:48:00,46.8,42.8,30.22,NNW,327,7.0,7.0,86,0.00,,,0.02,114,Wunderground v.1.15,2013-04-23 17:48:00,
2013-04-23 13:57:00,46.8,42.8,30.22,North,9,8.0,8.0,86,0.00,,,0.02,128,Wunderground v.1.15,2013-04-23 17:57:00,
2013-04-23 14:07:00,47.0,43.0,30.21,North,11,8.0,8.0,86,0.00,,,0.02,123,Wunderground v.1.15,2013-04-23 18:07:00,
2013-04-23 14:13:00,47.1,43.1,30.20,North,360,8.0,19.0,86,0.00,,,0.02,120,Wunderground v.1.15,2013-04-23 18:13:00,
2013-04-23 14:22:00,47.1,43.1,30.20,North,355,8.0,9.0,86,0.00,,,0.02,130,Wunderground v.1.15,2013-04-23 18:22:00,
2013-04-23 14:33:00,47.3,43.3,30.20,North,360,8.0,19.0,86,0.00,,,0.02,174,Wunderground v.1.15,2013-04-23 18:33:00,
2013-04-23 14:42:00,47.8,43.8,30.19,North,355,8.0,19.0,86,0.00,,,0.02,229,Wunderground v.1.15,2013-04-23 18:42:00,
2013-04-23 14:53:00,48.5,44.2,30.18,NNW,336,9.0,11.0,85,0.00,,,0.02,360,Wunderground v.1.15,2013-04-23 18:53:00,
2013-04-23 15:02:00,49.0,44.1,30.17,NW,313,8.0,17.0,83,0.00,,,0.02,359,Wunderground v.1.15,2013-04-23 19:02:00,
2013-04-23 15:12:00,49.1,44.2,30.17,NNW,346,9.0,11.0,83,0.00,,,0.02,313,Wunderground v.1.15,2013-04-23 19:12:00,
2013-04-23 15:18:00,49.1,43.8,30.17,NNW,334,9.0,9.0,82,0.00,,,0.02,360,Wunderground v.1.15,2013-04-23 19:18:00,
2013-04-23 15:27:00,49.4,44.1,30.17,NNW,344,9.0,9.0,82,0.00,,,0.02,295,Wunderground v.1.15,2013-04-23 19:27:00,
2013-04-23 15:38:00,49.3,44.0,30.16,NW,310,9.0,9.0,82,0.00,,,0.02,171,Wunderground v.1.15,2013-04-23 19:38:00,
2013-04-23 15:47:00,49.0,43.7,30.16,NE,53,8.0,8.0,82,0.00,,,0.02,142,Wunderground v.1.15,2013-04-23 19:47:00,
2013-04-23 15:57:00,48.9,44.0,30.16,NW,320,9.0,9.0,83,0.00,,,0.02,135,Wunderground v.1.15,2013-04-23 19:57:00,
2013-04-23 16:03:00,48.8,43.9,30.16,NW,314,9.0,11.0,83,0.00,,,0.02,121,Wunderground v.1.15,2013-04-23 20:03:00,
2013-04-23 16:17:00,48.2,43.3,30.15,West,261,9.0,20.0,83,0.00,,,0.02,137,Wunderground v.1.15,2013-04-23 20:17:00,
2013-04-23 16:22:00,48.2,43.3,30.15,NW,321,8.0,20.0,83,0.00,,,0.02,125,Wunderground v.1.15,2013-04-23 20:22:00,
2013-04-23 16:33:00,48.0,43.1,30.14,NNW,335,8.0,20.0,83,0.00,,,0.02,149,Wunderground v.1.15,2013-04-23 20:33:00,
2013-04-23 16:42:00,47.9,43.3,30.14,ENE,60,10.0,20.0,84,0.00,,,0.02,156,Wunderground v.1.15,2013-04-23 20:42:00,
2013-04-23 16:52:00,47.9,43.3,30.14,North,355,11.0,21.0,84,0.00,,,0.02,142,Wunderground v.1.15,2013-04-23 20:52:00,
2013-04-23 16:58:00,47.8,43.2,30.14,North,355,11.0,11.0,84,0.00,,,0.02,141,Wunderground v.1.15,2013-04-23 20:58:00,
2013-04-23 17:07:00,47.7,43.1,30.13,NW,326,11.0,11.0,84,0.00,,,0.02,156,Wunderground v.1.15,2013-04-23 21:07:00,
2013-04-23 17:17:00,47.9,43.3,30.14,NNW,327,9.0,21.0,84,0.00,,,0.02,116,Wunderground v.1.15,2013-04-23 21:17:00,
2013-04-23 17:27:00,47.8,43.2,30.14,NNW,342,9.0,22.0,84,0.00,,,0.02,95,Wunderground v.1.15,2013-04-23 21:27:00,
2013-04-23 17:38:00,47.7,43.1,30.14,North,355,10.0,22.0,84,0.00,,,0.02,88,Wunderground v.1.15,2013-04-23 21:38:00,
2013-04-23 17:47:00,47.7,43.1,30.13,NW,317,10.0,22.0,84,0.00,,,0.02,100,Wunderground v.1.15,2013-04-23 21:47:00,
2013-04-23 17:57:00,47.7,42.8,30.13,NNW,346,11.0,20.0,83,0.00,,,0.02,84,Wunderground v.1.15,2013-04-23 21:57:00,
2013-04-23 18:03:00,47.7,42.8,30.13,NW,320,10.0,20.0,83,0.00,,,0.02,77,Wunderground v.1.15,2013-04-23 22:03:00,
2013-04-23 18:12:00,47.6,43.0,30.13,North,355,11.0,20.0,84,0.00,,,0.02,46,Wunderground v.1.15,2013-04-23 22:12:00,
2013-04-23 18:22:00,47.6,43.0,30.13,NNW,342,9.0,21.0,84,0.00,,,0.02,40,Wunderground v.1.15,2013-04-23 22:22:00,
2013-04-23 18:32:00,47.6,43.0,30.12,NW,311,9.0,10.0,84,0.00,,,0.02,30,Wunderground v.1.15,2013-04-23 22:32:00,
2013-04-23 18:43:00,47.4,42.8,30.12,WNW,298,9.0,21.0,84,0.00,,,0.02,25,Wunderground v.1.15,2013-04-23 22:43:00,
2013-04-23 18:52:00,47.2,42.6,30.11,NNW,338,9.0,21.0,84,0.00,,,0.02,18,Wunderground v.1.15,2013-04-23 22:52:00,
2013-04-23 19:02:00,47.0,42.4,30.11,North,360,10.0,11.0,84,0.00,,,0.02,18,Wunderground v.1.15,2013-04-23 23:02:00,
2013-04-23 19:07:00,46.8,42.2,30.11,ENE,66,10.0,10.0,84,0.00,,,0.02,19,Wunderground v.1.15,2013-04-23 23:07:00,
2013-04-23 19:17:00,46.8,42.2,30.10,NNW,340,9.0,9.0,84,0.00,,,0.02,26,Wunderground v.1.15,2013-04-23 23:17:00,
2013-04-23 19:23:00,46.8,42.2,30.09,NW,326,9.0,22.0,84,0.00,,,0.02,23,Wunderground v.1.15,2013-04-23 23:23:00,
2013-04-23 19:32:00,46.6,42.0,30.09,North,350,9.0,22.0,84,0.00,,,0.02,12,Wunderground v.1.15,2013-04-23 23:32:00,
2013-04-23 19:42:00,46.4,41.8,30.09,NW,321,10.0,22.0,84,0.00,,,0.02,5,Wunderground v.1.15,2013-04-23 23:42:00,
2013-04-23 19:52:00,46.2,41.9,30.08,NNW,336,12.0,12.0,85,0.00,,,0.02,0,Wunderground v.1.15,2013-04-23 23:52:00,
2013-04-23 20:02:00,46.0,41.7,30.08,North,9,11.0,25.0,85,0.00,,,0.02,0,Wunderground v.1.15,2013-04-24 00:02:00,
2013-04-23 20:13:00,45.9,41.6,30.08,North,355,11.0,13.0,85,0.00,,,0.02,0,Wunderground v.1.15,2013-04-24 00:13:00,
2013-04-23 20:22:00,45.9,41.6,30.08,NNW,331,9.0,21.0,85,0.00,,,0.02,0,Wunderground v.1.15,2013-04-24 00:22:00,
2013-04-23 20:33:00,45.8,41.5,30.08,WNW,291,9.0,21.0,85,0.00,,,0.02,0,Wunderground v.1.15,2013-04-24 00:33:00,
2013-04-23 20:42:00,45.8,41.5,30.09,WNW,296,10.0,21.0,85,0.00,,,0.02,0,Wunderground v.1.15,2013-04-24 00:42:00,
2013-04-23 20:53:00,45.9,41.6,30.09,NNW,336,9.0,19.0,85,0.00,,,0.02,0,Wunderground v.1.15,2013-04-24 00:53:00,
2013-04-23 21:02:00,45.9,41.6,30.09,North,349,9.0,11.0,85,0.00,,,0.02,0,Wunderground v.1.15,2013-04-24 01:02:00,
2013-04-23 21:13:00,45.9,41.6,30.09,North,355,9.0,11.0,85,0.00,,,0.02,0,Wunderground v.1.15,2013-04-24 01:13:00,
2013-04-23 21:22:00,45.9,41.6,30.10,NNW,329,9.0,19.0,85,0.00,,,0.02,0,Wunderground v.1.15,2013-04-24 01:22:00,
2013-04-23 21:32:00,45.9,41.6,30.09,NNW,344,8.0,13.0,85,0.00,,,0.02,0,Wunderground v.1.15,2013-04-24 01:32:00,
2013-04-23 21:38:00,45.8,41.5,30.09,NNE,13,9.0,9.0,85,0.00,,,0.02,0,Wunderground v.1.15,2013-04-24 01:38:00,
2013-04-23 21:47:00,45.7,41.4,30.07,NW,305,9.0,19.0,85,0.00,,,0.02,0,Wunderground v.1.15,2013-04-24 01:47:00,
2013-04-23 21:57:00,45.6,41.4,30.07,NNW,343,8.0,19.0,85,0.00,,,0.02,0,Wunderground v.1.15,2013-04-24 01:57:00,
2013-04-23 22:07:00,45.3,41.1,30.06,NW,311,8.0,8.0,85,0.00,,,0.02,0,Wunderground v.1.15,2013-04-24 02:07:00,
2013-04-23 22:18:00,45.1,41.2,30.06,NNW,343,9.0,9.0,86,0.00,,,0.02,0,Wunderground v.1.15,2013-04-24 02:18:00,
2013-04-23 22:28:00,45.0,41.1,30.04,North,355,8.0,8.0,86,0.00,,,0.02,0,Wunderground v.1.15,2013-04-24 02:28:00,
2013-04-23 22:37:00,45.1,41.2,30.03,NW,311,9.0,19.0,86,0.00,,,0.02,0,Wunderground v.1.15,2013-04-24 02:37:00,
2013-04-23 22:48:00,45.2,41.3,30.03,NW,321,8.0,19.0,86,0.00,,,0.02,0,Wunderground v.1.15,2013-04-24 02:48:00,
2013-04-23 22:57:00,45.2,41.3,30.03,NW,316,10.0,10.0,86,0.00,,,0.02,0,Wunderground v.1.15,2013-04-24 02:57:00,
2013-04-23 23:07:00,45.3,41.4,30.02,NNW,345,8.0,22.0,86,0.00,,,0.02,0,Wunderground v.1.15,2013-04-24 03:07:00,
2013-04-23 23:17:00,45.4,41.5,30.02,North,350,9.0,9.0,86,0.00,,,0.02,0,Wunderground v.1.15,2013-04-24 03:17:00,
2013-04-23 23:28:00,45.3,41.4,30.01,NNW,341,9.0,9.0,86,0.00,,,0.02,0,Wunderground v.1.15,2013-04-24 03:28:00,
2013-04-23 23:37:00,45.3,41.4,30.01,NNW,337,8.0,8.0,86,0.00,,,0.02,0,Wunderground v.1.15,2013-04-24 03:37:00,
2013-04-23 23:47:00,45.3,41.7,30.02,NNW,330,9.0,9.0,87,0.00,,,0.02,0,Wunderground v.1.15,2013-04-24 03:47:00,
2013-04-23 23:57:00,45.3,41.7,30.02,NNW,327,8.0,18.0,87,0.00,,,0.02,0,Wunderground v.1.15,2013-04-24 03:57:00,